Location: Pebble Beach Sunset Acres
(33.0837°N, 96.4508°W)
Time: 02:37:18
(UTC+00:00)

DELTA 2 R/B (1) - Visible Passes

Search period start: 26 June 2022 00:00
Search period end: 06 July 2022 00:00
Orbit: 790 x 802 km, 39.6° (Epoch: 25 June)

Date Brightness Start Highest point End Pass type
(mag) Time Alt. Az. Time Alt. Az. Time Alt. Az.
26 Jun 4.7 02:23:36 10° WNW 02:28:54 42° N 02:34:14 10° ENE visible
26 Jun 3.9 04:10:23 10° WNW 04:15:56 61° NNE 04:17:28 44° ENE visible
26 Jun 5.7 05:56:58 10° WNW 05:58:11 17° W 05:58:11 17° W visible
27 Jun 4.0 03:39:21 10° WNW 03:44:53 58° NNE 03:47:40 29° E visible
27 Jun 5.2 05:25:55 10° WNW 05:28:24 26° W 05:28:24 26° W visible
28 Jun 4.1 03:08:20 10° WNW 03:13:50 55° NNE 03:17:55 18° E visible
28 Jun 4.4 04:54:52 10° WNW 04:58:39 40° W 04:58:39 40° W visible
29 Jun 4.2 02:37:20 10° WNW 02:42:48 53° NNE 02:48:11 10° E visible
29 Jun 3.7 04:23:50 10° WNW 04:28:55 60° SW 04:28:55 60° SW visible
30 Jun 4.3 02:06:18 10° WNW 02:11:44 51° NNE 02:17:11 10° E visible
30 Jun 3.5 03:52:47 10° WNW 03:58:21 67° SSW 03:59:14 57° SSE visible
01 Jul 3.6 03:21:46 10° WNW 03:27:20 72° SSW 03:29:35 37° SE visible
01 Jul 5.9 05:09:30 10° W 05:10:20 13° WSW 05:10:20 13° WSW visible
02 Jul 3.6 02:50:44 10° WNW 02:56:20 78° SSW 03:00:00 22° ESE visible
02 Jul 5.5 04:38:15 10° W 04:40:44 18° WSW 04:40:44 18° WSW visible
03 Jul 3.6 02:19:43 10° WNW 02:25:19 84° SSW 02:30:26 13° ESE visible
03 Jul 5.1 04:07:03 10° W 04:11:11 22° SW 04:11:11 22° SW visible
04 Jul 4.9 03:35:52 10° W 03:40:20 25° SW 03:41:41 23° SSW visible
05 Jul 4.9 03:04:43 10° W 03:09:22 27° SW 03:12:14 18° S visible
